Year,Month,Day,Hour,Minute,Value (Times are PST for temperature in C)
2011,10,16,00,00,3.90
2011,10,16,00,01,3.90
2011,10,16,00,02,3.90
2011,10,16,00,03,3.90
2011,10,16,00,04,3.90
2011,10,16,00,05,3.80
2011,10,16,00,06,3.80
2011,10,16,00,07,3.80
2011,10,16,00,08,3.80
2011,10,16,00,09,3.80
2011,10,16,00,10,3.80
2011,10,16,00,11,3.80
2011,10,16,00,12,3.90
2011,10,16,00,13,3.90
2011,10,16,00,14,3.90
2011,10,16,00,15,3.90
2011,10,16,00,16,3.90
2011,10,16,00,17,3.90
2011,10,16,00,18,3.90
2011,10,16,00,19,4.00
2011,10,16,00,20,4.00
2011,10,16,00,21,4.00
2011,10,16,00,22,3.90
2011,10,16,00,23,3.90
2011,10,16,00,24,3.90
2011,10,16,00,25,3.90
2011,10,16,00,26,3.90
2011,10,16,00,27,3.90
2011,10,16,00,28,3.80
2011,10,16,00,29,3.80
2011,10,16,00,30,3.80
2011,10,16,00,31,3.70
2011,10,16,00,32,3.70
2011,10,16,00,33,3.70
2011,10,16,00,34,3.70
2011,10,16,00,35,3.70
2011,10,16,00,36,3.60
2011,10,16,00,37,3.60
2011,10,16,00,38,3.60
2011,10,16,00,39,3.60
2011,10,16,00,40,3.60
2011,10,16,00,41,3.60
2011,10,16,00,42,3.60
2011,10,16,00,43,3.60
2011,10,16,00,44,3.60
2011,10,16,00,45,3.60
2011,10,16,00,46,3.60
2011,10,16,00,47,3.60
2011,10,16,00,48,3.60
2011,10,16,00,49,3.60
2011,10,16,00,50,3.50
2011,10,16,00,51,3.50
2011,10,16,00,52,3.50
2011,10,16,00,53,3.50
2011,10,16,00,54,3.50
2011,10,16,00,55,3.50
2011,10,16,00,56,3.60
2011,10,16,00,57,3.60
2011,10,16,00,58,3.60
2011,10,16,00,59,3.60
2011,10,16,01,00,3.60
2011,10,16,01,01,3.60
2011,10,16,01,02,3.60
2011,10,16,01,03,3.60
2011,10,16,01,04,3.60
2011,10,16,01,05,3.60
2011,10,16,01,06,3.60
2011,10,16,01,07,3.50
2011,10,16,01,08,3.50
2011,10,16,01,09,3.50
2011,10,16,01,10,3.40
2011,10,16,01,11,3.40
2011,10,16,01,12,3.40
2011,10,16,01,13,3.40
2011,10,16,01,14,3.40
2011,10,16,01,15,3.40
2011,10,16,01,16,3.50
2011,10,16,01,17,3.50
2011,10,16,01,18,3.50
2011,10,16,01,19,3.60
2011,10,16,01,20,3.50
2011,10,16,01,21,3.50
2011,10,16,01,22,3.50
2011,10,16,01,23,3.50
2011,10,16,01,24,3.50
2011,10,16,01,25,3.40
2011,10,16,01,26,3.40
2011,10,16,01,27,3.40
2011,10,16,01,28,3.40
2011,10,16,01,29,3.40
2011,10,16,01,30,3.30
2011,10,16,01,31,3.30
2011,10,16,01,32,3.30
2011,10,16,01,33,3.30
2011,10,16,01,34,3.20
2011,10,16,01,35,3.20
2011,10,16,01,36,3.20
2011,10,16,01,37,3.10
2011,10,16,01,38,3.10
2011,10,16,01,39,3.10
2011,10,16,01,40,3.00
2011,10,16,01,41,3.00
2011,10,16,01,42,2.90
2011,10,16,01,43,2.90
2011,10,16,01,44,2.80
2011,10,16,01,45,2.80
2011,10,16,01,46,2.80
2011,10,16,01,47,2.80
2011,10,16,01,48,2.80
2011,10,16,01,49,2.70
2011,10,16,01,50,2.70
2011,10,16,01,51,2.70
2011,10,16,01,52,2.70
2011,10,16,01,53,2.60
2011,10,16,01,54,2.60
2011,10,16,01,55,2.60
2011,10,16,01,56,2.60
2011,10,16,01,57,2.50
2011,10,16,01,58,2.50
2011,10,16,01,59,2.50
2011,10,16,02,00,2.50
2011,10,16,02,01,2.40
2011,10,16,02,02,2.40
2011,10,16,02,03,2.40
2011,10,16,02,04,2.40
2011,10,16,02,05,2.40
2011,10,16,02,06,2.40
2011,10,16,02,07,2.40
2011,10,16,02,08,2.40
2011,10,16,02,09,2.40
2011,10,16,02,10,2.40
2011,10,16,02,11,2.30
2011,10,16,02,12,2.30
2011,10,16,02,13,2.30
2011,10,16,02,14,2.30
2011,10,16,02,15,2.30
2011,10,16,02,16,2.30
2011,10,16,02,17,2.20
2011,10,16,02,18,2.30
2011,10,16,02,19,2.30
2011,10,16,02,20,2.30
2011,10,16,02,21,2.30
2011,10,16,02,22,2.30
2011,10,16,02,23,2.30
2011,10,16,02,24,2.30
2011,10,16,02,25,2.30
2011,10,16,02,26,2.20
2011,10,16,02,27,2.20
2011,10,16,02,28,2.20
2011,10,16,02,29,2.20
2011,10,16,02,30,2.20
2011,10,16,02,31,2.20
2011,10,16,02,32,2.20
2011,10,16,02,33,2.10
2011,10,16,02,34,2.10
2011,10,16,02,35,2.10
2011,10,16,02,36,2.10
2011,10,16,02,37,2.10
2011,10,16,02,38,2.10
2011,10,16,02,39,2.10
2011,10,16,02,40,2.10
2011,10,16,02,41,2.10
2011,10,16,02,42,2.10
2011,10,16,02,43,2.10
2011,10,16,02,44,2.10
2011,10,16,02,45,2.10
2011,10,16,02,46,2.10
2011,10,16,02,47,2.10
2011,10,16,02,48,2.10
2011,10,16,02,49,2.10
2011,10,16,02,50,2.10
2011,10,16,02,51,2.10
2011,10,16,02,52,2.10
2011,10,16,02,53,2.10
2011,10,16,02,54,2.10
2011,10,16,02,55,2.10
2011,10,16,02,56,2.10
2011,10,16,02,57,2.10
2011,10,16,02,58,2.10
2011,10,16,02,59,2.10
2011,10,16,03,00,2.10
2011,10,16,03,01,2.00
2011,10,16,03,02,2.00
2011,10,16,03,03,1.90
2011,10,16,03,04,1.90
2011,10,16,03,05,1.90
2011,10,16,03,06,1.80
2011,10,16,03,07,1.80
2011,10,16,03,08,1.80
2011,10,16,03,09,1.80
2011,10,16,03,10,1.80
2011,10,16,03,11,1.80
2011,10,16,03,12,1.80
2011,10,16,03,13,1.70
2011,10,16,03,14,1.70
2011,10,16,03,15,1.70
2011,10,16,03,16,1.70
2011,10,16,03,17,1.70
2011,10,16,03,18,1.60
2011,10,16,03,19,1.60
2011,10,16,03,20,1.60
2011,10,16,03,21,1.50
2011,10,16,03,22,1.50
2011,10,16,03,23,1.50
2011,10,16,03,24,1.40
2011,10,16,03,25,1.40
2011,10,16,03,26,1.40
2011,10,16,03,27,1.40
2011,10,16,03,28,1.40
2011,10,16,03,29,1.40
2011,10,16,03,30,1.40
2011,10,16,03,31,1.40
2011,10,16,03,32,1.40
2011,10,16,03,33,1.40
2011,10,16,03,34,1.40
2011,10,16,03,35,1.40
2011,10,16,03,36,1.30
2011,10,16,03,37,1.30
2011,10,16,03,38,1.30
2011,10,16,03,39,1.30
2011,10,16,03,40,1.30
2011,10,16,03,41,1.30
2011,10,16,03,42,1.30
2011,10,16,03,43,1.30
2011,10,16,03,44,1.30
2011,10,16,03,45,1.30
2011,10,16,03,46,1.30
2011,10,16,03,47,1.30
2011,10,16,03,48,1.30
2011,10,16,03,49,1.30
2011,10,16,03,50,1.30
2011,10,16,03,51,1.30
2011,10,16,03,52,1.30
2011,10,16,03,53,1.30
2011,10,16,03,54,1.30
2011,10,16,03,55,1.30
2011,10,16,03,56,1.30
2011,10,16,03,57,1.30
2011,10,16,03,58,1.30
2011,10,16,03,59,1.30
2011,10,16,04,00,1.30
2011,10,16,04,01,1.30
2011,10,16,04,02,1.20
2011,10,16,04,03,1.20
2011,10,16,04,04,1.20
2011,10,16,04,05,1.20
2011,10,16,04,06,1.30
2011,10,16,04,07,1.30
2011,10,16,04,08,1.20
2011,10,16,04,09,1.20
2011,10,16,04,10,1.20
2011,10,16,04,11,1.20
2011,10,16,04,12,1.20
2011,10,16,04,13,1.20
2011,10,16,04,14,1.20
2011,10,16,04,15,1.20
2011,10,16,04,16,1.20
2011,10,16,04,17,1.10
2011,10,16,04,18,1.10
2011,10,16,04,19,1.10
2011,10,16,04,20,1.10
2011,10,16,04,21,1.10
2011,10,16,04,22,1.10
2011,10,16,04,23,1.10
2011,10,16,04,24,1.10
2011,10,16,04,25,1.00
2011,10,16,04,26,1.00
2011,10,16,04,27,1.00
2011,10,16,04,28,1.00
2011,10,16,04,29,1.00
2011,10,16,04,30,1.00
2011,10,16,04,31,1.00
2011,10,16,04,32,1.00
2011,10,16,04,33,0.90
2011,10,16,04,34,0.90
2011,10,16,04,35,0.90
2011,10,16,04,36,0.90
2011,10,16,04,37,0.90
2011,10,16,04,38,0.90
2011,10,16,04,39,0.90
2011,10,16,04,40,0.90
2011,10,16,04,41,0.90
2011,10,16,04,42,0.90
2011,10,16,04,43,0.90
2011,10,16,04,44,0.90
2011,10,16,04,45,0.90
2011,10,16,04,46,0.80
2011,10,16,04,47,0.80
2011,10,16,04,48,0.80
2011,10,16,04,49,0.80
2011,10,16,04,50,0.80
2011,10,16,04,51,0.80
2011,10,16,04,52,0.80
2011,10,16,04,53,0.80
2011,10,16,04,54,0.70
2011,10,16,04,55,0.70
2011,10,16,04,56,0.80
2011,10,16,04,57,0.70
2011,10,16,04,58,0.70
2011,10,16,04,59,0.70
2011,10,16,05,00,0.70
2011,10,16,05,01,0.70
2011,10,16,05,02,0.70
2011,10,16,05,03,0.70
2011,10,16,05,04,0.70
2011,10,16,05,05,0.70
2011,10,16,05,06,0.70
2011,10,16,05,07,0.70
2011,10,16,05,08,0.70
2011,10,16,05,09,0.70
2011,10,16,05,10,0.70
2011,10,16,05,11,0.70
2011,10,16,05,12,0.70
2011,10,16,05,13,0.70
2011,10,16,05,14,0.70
2011,10,16,05,15,0.70
2011,10,16,05,16,0.70
2011,10,16,05,17,0.70
2011,10,16,05,18,0.60
2011,10,16,05,19,0.60
2011,10,16,05,20,0.60
2011,10,16,05,21,0.60
2011,10,16,05,22,0.60
2011,10,16,05,23,0.60
2011,10,16,05,24,0.60
2011,10,16,05,25,0.60
2011,10,16,05,26,0.60
2011,10,16,05,27,0.60
2011,10,16,05,28,0.60
2011,10,16,05,29,0.60
2011,10,16,05,30,0.60
2011,10,16,05,31,0.60
2011,10,16,05,32,0.60
2011,10,16,05,33,0.60
2011,10,16,05,34,0.60
2011,10,16,05,35,0.60
2011,10,16,05,36,0.60
2011,10,16,05,37,0.60
2011,10,16,05,38,0.60
2011,10,16,05,39,0.60
2011,10,16,05,40,0.60
2011,10,16,05,41,0.50
2011,10,16,05,42,0.50
2011,10,16,05,43,0.50
2011,10,16,05,44,0.50
2011,10,16,05,45,0.50
2011,10,16,05,46,0.50
2011,10,16,05,47,0.50
2011,10,16,05,48,0.50
2011,10,16,05,49,0.60
2011,10,16,05,50,0.60
2011,10,16,05,51,0.60
2011,10,16,05,52,0.60
2011,10,16,05,53,0.60
2011,10,16,05,54,0.60
2011,10,16,05,55,0.60
2011,10,16,05,56,0.60
2011,10,16,05,57,0.60
2011,10,16,05,58,0.60
2011,10,16,05,59,0.60
2011,10,16,06,00,0.60
2011,10,16,06,01,0.60
2011,10,16,06,02,0.60
2011,10,16,06,03,0.60
2011,10,16,06,04,0.60
2011,10,16,06,05,0.60
2011,10,16,06,06,0.50
2011,10,16,06,07,0.50
2011,10,16,06,08,0.50
2011,10,16,06,09,0.50
2011,10,16,06,10,0.40
2011,10,16,06,11,0.40
2011,10,16,06,12,0.40
2011,10,16,06,13,0.40
2011,10,16,06,14,0.50
2011,10,16,06,15,0.50
2011,10,16,06,16,0.50
2011,10,16,06,17,0.50
2011,10,16,06,18,0.50
2011,10,16,06,19,0.50
2011,10,16,06,20,0.50
2011,10,16,06,21,0.60
2011,10,16,06,22,0.60
2011,10,16,06,23,0.60
2011,10,16,06,24,0.50
2011,10,16,06,25,0.60
2011,10,16,06,26,0.60
2011,10,16,06,27,0.50
2011,10,16,06,28,0.50
2011,10,16,06,29,0.50
2011,10,16,06,30,0.50
2011,10,16,06,31,0.50
2011,10,16,06,32,0.40
2011,10,16,06,33,0.40
2011,10,16,06,34,0.40
2011,10,16,06,35,0.40
2011,10,16,06,36,0.40
2011,10,16,06,37,0.40
2011,10,16,06,38,0.40
2011,10,16,06,39,0.40
2011,10,16,06,40,0.40
2011,10,16,06,41,0.40
2011,10,16,06,42,0.40
2011,10,16,06,43,0.40
2011,10,16,06,44,0.40
2011,10,16,06,45,0.40
2011,10,16,06,46,0.40
2011,10,16,06,47,0.40
2011,10,16,06,48,0.40
2011,10,16,06,49,0.40
2011,10,16,06,50,0.40
2011,10,16,06,51,0.50
2011,10,16,06,52,0.50
2011,10,16,06,53,0.40
2011,10,16,06,54,0.40
2011,10,16,06,55,0.40
2011,10,16,06,56,0.40
2011,10,16,06,57,0.40
2011,10,16,06,58,0.40
2011,10,16,06,59,0.40
2011,10,16,07,00,0.40
2011,10,16,07,01,0.40
2011,10,16,07,02,0.40
2011,10,16,07,03,0.40
2011,10,16,07,04,0.40
2011,10,16,07,05,0.30
2011,10,16,07,06,0.30
2011,10,16,07,07,0.30
2011,10,16,07,08,0.30
2011,10,16,07,09,0.30
2011,10,16,07,10,0.30
2011,10,16,07,11,0.30
2011,10,16,07,12,0.30
2011,10,16,07,13,0.30
2011,10,16,07,14,0.30
2011,10,16,07,15,0.30
2011,10,16,07,16,0.30
2011,10,16,07,17,0.30
2011,10,16,07,18,0.30
2011,10,16,07,19,0.30
2011,10,16,07,20,0.20
2011,10,16,07,21,0.20
2011,10,16,07,22,0.20
2011,10,16,07,23,0.20
2011,10,16,07,24,0.20
2011,10,16,07,25,0.20
2011,10,16,07,26,0.20
2011,10,16,07,27,0.20
2011,10,16,07,28,0.20
2011,10,16,07,29,0.20
2011,10,16,07,30,0.20
2011,10,16,07,31,0.20
2011,10,16,07,32,0.20
2011,10,16,07,33,0.20
2011,10,16,07,34,0.20
2011,10,16,07,35,0.20
2011,10,16,07,36,0.20
2011,10,16,07,37,0.20
2011,10,16,07,38,0.20
2011,10,16,07,39,0.20
2011,10,16,07,40,0.20
2011,10,16,07,41,0.20
2011,10,16,07,42,0.20
2011,10,16,07,43,0.20
2011,10,16,07,44,0.20
2011,10,16,07,45,0.20
2011,10,16,07,46,0.20
2011,10,16,07,47,0.20
2011,10,16,07,48,0.20
2011,10,16,07,49,0.20
2011,10,16,07,50,0.20
2011,10,16,07,51,0.20
2011,10,16,07,52,0.30
2011,10,16,07,53,0.30
2011,10,16,07,54,0.30
2011,10,16,07,55,0.30
2011,10,16,07,56,0.30
2011,10,16,07,57,0.30
2011,10,16,07,58,0.30
2011,10,16,07,59,0.30
2011,10,16,08,00,0.30
2011,10,16,08,01,0.30
2011,10,16,08,02,0.30
2011,10,16,08,03,0.30
2011,10,16,08,04,0.30
2011,10,16,08,05,0.40
2011,10,16,08,06,0.40
2011,10,16,08,07,0.40
2011,10,16,08,08,0.40
2011,10,16,08,09,0.40
2011,10,16,08,10,0.40
2011,10,16,08,11,0.50
2011,10,16,08,12,0.50
2011,10,16,08,13,0.50
2011,10,16,08,14,0.50
2011,10,16,08,15,0.50
2011,10,16,08,16,0.50
2011,10,16,08,17,0.50
2011,10,16,08,18,0.50
2011,10,16,08,19,0.60
2011,10,16,08,20,0.60
2011,10,16,08,21,0.60
2011,10,16,08,22,0.60
2011,10,16,08,23,0.60
2011,10,16,08,24,0.70
2011,10,16,08,25,0.70
2011,10,16,08,26,0.70
2011,10,16,08,27,0.80
2011,10,16,08,28,0.80
2011,10,16,08,29,0.90
2011,10,16,08,30,1.00
2011,10,16,08,31,1.10
2011,10,16,08,32,1.10
2011,10,16,08,33,1.20
2011,10,16,08,34,1.30
2011,10,16,08,35,1.30
2011,10,16,08,36,1.40
2011,10,16,08,37,1.50
2011,10,16,08,38,1.50
2011,10,16,08,39,1.60
2011,10,16,08,40,1.60
2011,10,16,08,41,1.60
2011,10,16,08,42,1.60
2011,10,16,08,43,1.70
2011,10,16,08,44,1.70
2011,10,16,08,45,1.70
2011,10,16,08,46,1.80
2011,10,16,08,47,1.90
2011,10,16,08,48,1.90
2011,10,16,08,49,2.00
2011,10,16,08,50,2.10
2011,10,16,08,51,2.10
2011,10,16,08,52,2.20
2011,10,16,08,53,2.30
2011,10,16,08,54,2.30
2011,10,16,08,55,2.40
2011,10,16,08,56,2.50
2011,10,16,08,57,2.60
2011,10,16,08,58,2.70
2011,10,16,08,59,2.70
2011,10,16,09,00,2.80
2011,10,16,09,01,2.80
2011,10,16,09,02,2.90
2011,10,16,09,03,3.00
2011,10,16,09,04,3.00
2011,10,16,09,05,3.10
2011,10,16,09,06,3.20
2011,10,16,09,07,3.30
2011,10,16,09,08,3.30
2011,10,16,09,09,3.40
2011,10,16,09,10,3.60
2011,10,16,09,11,3.70
2011,10,16,09,12,3.90
2011,10,16,09,13,4.00
2011,10,16,17,13,11.50
2011,10,16,17,14,11.50
2011,10,16,17,15,11.40
2011,10,16,17,16,11.40
2011,10,16,17,17,11.40
2011,10,16,17,18,11.30
2011,10,16,17,19,11.20
2011,10,16,17,20,11.20
2011,10,16,17,21,11.20
2011,10,16,17,22,11.20
2011,10,16,17,23,11.10
2011,10,16,17,24,11.10
2011,10,16,17,25,11.10
2011,10,16,17,26,11.10
2011,10,16,17,27,11.00
2011,10,16,17,28,11.00
2011,10,16,17,29,11.00
2011,10,16,17,30,11.00
2011,10,16,17,31,11.00
2011,10,16,17,32,10.90
2011,10,16,17,33,10.90
2011,10,16,17,34,10.90
2011,10,16,17,35,10.90
2011,10,16,17,36,10.80
2011,10,16,17,37,10.80
2011,10,16,17,38,10.80
2011,10,16,17,39,10.70
2011,10,16,17,40,10.70
2011,10,16,17,41,10.70
2011,10,16,17,42,10.60
2011,10,16,17,43,10.60
2011,10,16,17,44,10.60
2011,10,16,17,45,10.60
2011,10,16,17,46,10.50
2011,10,16,17,47,10.50
2011,10,16,17,48,10.40
2011,10,16,17,49,10.40
2011,10,16,17,50,10.40
2011,10,16,17,51,10.40
2011,10,16,17,52,10.40
2011,10,16,17,53,10.40
2011,10,16,17,54,10.30
2011,10,16,17,55,10.30
2011,10,16,17,56,10.30
2011,10,16,17,57,10.30
2011,10,16,17,58,10.30
2011,10,16,17,59,10.30
2011,10,16,18,00,10.30
2011,10,16,18,01,10.30
2011,10,16,18,02,10.30
2011,10,16,18,03,10.30
2011,10,16,18,04,10.30
2011,10,16,18,05,10.30
2011,10,16,18,06,10.20
2011,10,16,18,07,10.20
2011,10,16,18,08,10.20
2011,10,16,18,09,10.20
2011,10,16,18,10,10.20
2011,10,16,18,11,10.10
2011,10,16,18,12,10.10
2011,10,16,18,13,10.00
2011,10,16,18,14,10.00
2011,10,16,18,15,10.00
2011,10,16,18,16,10.00
2011,10,16,18,17,9.90
2011,10,16,18,18,9.90
2011,10,16,18,19,9.90
2011,10,16,18,20,9.90
2011,10,16,18,21,9.90
2011,10,16,18,22,9.80
2011,10,16,18,23,9.80
2011,10,16,18,24,9.80
2011,10,16,18,25,9.80
2011,10,16,18,26,9.80
2011,10,16,18,27,9.70
2011,10,16,18,28,9.70
2011,10,16,18,29,9.70
2011,10,16,18,30,9.60
2011,10,16,18,31,9.60
2011,10,16,18,32,9.50
2011,10,16,18,33,9.50
2011,10,16,18,34,9.40
2011,10,16,18,35,9.40
2011,10,16,18,36,9.40
2011,10,16,18,37,9.30
2011,10,16,18,38,9.30
2011,10,16,18,39,9.30
2011,10,16,18,40,9.30
2011,10,16,18,41,9.20
2011,10,16,18,42,9.20
2011,10,16,18,43,9.20
2011,10,16,18,44,9.10
2011,10,16,18,45,9.10
2011,10,16,18,46,9.00
2011,10,16,18,47,9.00
2011,10,16,18,48,8.90
2011,10,16,18,49,8.90
2011,10,16,18,50,8.90
2011,10,16,18,51,8.80
2011,10,16,18,52,8.80
2011,10,16,18,53,8.80
2011,10,16,18,54,8.80
2011,10,16,18,55,8.70
2011,10,16,18,56,8.70
2011,10,16,18,57,8.70
2011,10,16,18,58,8.60
2011,10,16,18,59,8.60
2011,10,16,19,00,8.60
2011,10,16,19,01,8.60
2011,10,16,19,02,8.60
2011,10,16,19,03,8.60
2011,10,16,19,04,8.60
2011,10,16,19,05,8.60
2011,10,16,19,06,8.60
2011,10,16,19,07,8.60
2011,10,16,19,08,8.60
2011,10,16,19,09,8.60
2011,10,16,19,10,8.60
2011,10,16,19,11,8.60
2011,10,16,19,12,8.60
2011,10,16,19,13,8.60
2011,10,16,19,14,8.60
2011,10,16,19,15,8.60
2011,10,16,19,16,8.60
2011,10,16,19,17,8.60
2011,10,16,19,18,8.60
2011,10,16,19,19,8.60
2011,10,16,19,20,8.60
2011,10,16,19,21,8.60
2011,10,16,19,22,8.60
2011,10,16,19,23,8.50
2011,10,16,19,24,8.50
2011,10,16,19,25,8.50
2011,10,16,19,26,8.50
2011,10,16,19,27,8.50
2011,10,16,19,28,8.50
2011,10,16,19,29,8.50
2011,10,16,19,30,8.50
2011,10,16,19,31,8.50
2011,10,16,19,32,8.50
2011,10,16,19,33,8.50
2011,10,16,19,34,8.50
2011,10,16,19,35,8.50
2011,10,16,19,36,8.50
2011,10,16,19,37,8.50
2011,10,16,19,38,8.50
2011,10,16,19,39,8.50
2011,10,16,19,40,8.50
2011,10,16,19,41,8.40
2011,10,16,19,42,8.40
2011,10,16,19,43,8.40
2011,10,16,19,44,8.40
2011,10,16,19,45,8.40
2011,10,16,19,46,8.40
2011,10,16,19,47,8.40
2011,10,16,19,48,8.40
2011,10,16,19,49,8.40
2011,10,16,19,50,8.40
2011,10,16,19,51,8.40
2011,10,16,19,52,8.40
2011,10,16,19,53,8.40
2011,10,16,19,54,8.30
2011,10,16,19,55,8.30
2011,10,16,19,56,8.30
2011,10,16,19,57,8.30
2011,10,16,19,58,8.30
2011,10,16,19,59,8.30
2011,10,16,20,00,8.30
2011,10,16,20,01,8.30
2011,10,16,20,02,8.30
2011,10,16,20,03,8.30
2011,10,16,20,04,8.30
2011,10,16,20,05,8.30
2011,10,16,20,06,8.30
2011,10,16,20,07,8.30
2011,10,16,20,08,8.30
2011,10,16,20,09,8.30
2011,10,16,20,10,8.30
2011,10,16,20,11,8.30
2011,10,16,20,12,8.30
2011,10,16,20,13,8.30
2011,10,16,20,14,8.30
2011,10,16,20,15,8.30
2011,10,16,20,16,8.30
2011,10,16,20,17,8.30
2011,10,16,20,18,8.30
2011,10,16,20,19,8.30
2011,10,16,20,20,8.30
2011,10,16,20,21,8.30
2011,10,16,20,22,8.30
2011,10,16,20,23,8.30
2011,10,16,20,24,8.30
2011,10,16,20,25,8.30
2011,10,16,20,26,8.30
2011,10,16,20,27,8.30
2011,10,16,20,28,8.40
2011,10,16,20,29,8.40
2011,10,16,20,30,8.40
2011,10,16,20,31,8.40
2011,10,16,20,32,8.40
2011,10,16,20,33,8.40
2011,10,16,20,34,8.40
2011,10,16,20,35,8.40
2011,10,16,20,36,8.40
2011,10,16,20,37,8.40
2011,10,16,20,38,8.40
2011,10,16,20,39,8.40
2011,10,16,20,40,8.40
2011,10,16,20,41,8.40
2011,10,16,20,42,8.40
2011,10,16,20,43,8.40
2011,10,16,20,44,8.40
2011,10,16,20,45,8.40
2011,10,16,20,46,8.40
2011,10,16,20,47,8.40
2011,10,16,20,48,8.30
2011,10,16,20,49,8.30
2011,10,16,20,50,8.40
2011,10,16,20,51,8.40
2011,10,16,20,52,8.40
2011,10,16,20,53,8.40
2011,10,16,20,54,8.40
2011,10,16,20,55,8.40
2011,10,16,20,56,8.40
2011,10,16,20,57,8.40
2011,10,16,20,58,8.40
2011,10,16,20,59,8.40
2011,10,16,21,00,8.40
2011,10,16,21,01,8.40
2011,10,16,21,02,8.40
2011,10,16,21,03,8.40
2011,10,16,21,04,8.40
2011,10,16,21,05,8.40
2011,10,16,21,06,8.40
2011,10,16,21,07,8.40
2011,10,16,21,08,8.40
2011,10,16,21,09,8.40
2011,10,16,21,10,8.40
2011,10,16,21,11,8.40
2011,10,16,21,12,8.40
2011,10,16,21,13,8.40
2011,10,16,21,14,8.40
2011,10,16,21,15,8.40
2011,10,16,21,16,8.40
2011,10,16,21,17,8.40
2011,10,16,21,18,8.40
2011,10,16,21,19,8.40
2011,10,16,21,20,8.40
2011,10,16,21,21,8.40
2011,10,16,21,22,8.40
2011,10,16,21,23,8.40
2011,10,16,21,24,8.40
2011,10,16,21,25,8.40
2011,10,16,21,26,8.40
2011,10,16,21,27,8.40
2011,10,16,21,28,8.40
2011,10,16,21,29,8.40
2011,10,16,21,30,8.40
2011,10,16,21,31,8.30
2011,10,16,21,32,8.30
2011,10,16,21,33,8.30
2011,10,16,21,34,8.30
2011,10,16,21,35,8.30
2011,10,16,21,36,8.30
2011,10,16,21,37,8.30
2011,10,16,21,38,8.30
2011,10,16,21,39,8.30
2011,10,16,21,40,8.20
2011,10,16,21,41,8.20
2011,10,16,21,42,8.20
2011,10,16,21,43,8.20
2011,10,16,21,44,8.20
2011,10,16,21,45,8.20
2011,10,16,21,46,8.20
2011,10,16,21,47,8.10
2011,10,16,21,48,8.10
2011,10,16,21,49,8.10
2011,10,16,21,50,8.10
2011,10,16,21,51,8.10
2011,10,16,21,52,8.10
2011,10,16,21,53,8.10
2011,10,16,21,54,8.10
2011,10,16,21,55,8.00
2011,10,16,21,56,8.00
2011,10,16,21,57,8.00
2011,10,16,21,58,8.00
2011,10,16,21,59,8.10
2011,10,16,22,00,8.10
2011,10,16,22,01,8.10
2011,10,16,22,02,8.10
2011,10,16,22,03,8.10
2011,10,16,22,04,8.10
2011,10,16,22,05,8.10
2011,10,16,22,06,8.10
2011,10,16,22,07,8.10
2011,10,16,22,08,8.10
2011,10,16,22,09,8.10
2011,10,16,22,10,8.10
2011,10,16,22,11,8.10
2011,10,16,22,12,8.10
2011,10,16,22,13,8.10
2011,10,16,22,14,8.10
2011,10,16,22,15,8.10
2011,10,16,22,16,8.10
2011,10,16,22,17,8.10
2011,10,16,22,18,8.20
2011,10,16,22,19,8.20
2011,10,16,22,20,8.20
2011,10,16,22,21,8.20
2011,10,16,22,22,8.20
2011,10,16,22,23,8.20
2011,10,16,22,24,8.20
2011,10,16,22,25,8.20
2011,10,16,22,26,8.20
2011,10,16,22,27,8.20
2011,10,16,22,28,8.20
2011,10,16,22,29,8.20
2011,10,16,22,30,8.20
2011,10,16,22,31,8.20
2011,10,16,22,32,8.20
2011,10,16,22,33,8.20
2011,10,16,22,34,8.10
2011,10,16,22,35,8.10
2011,10,16,22,36,8.10
2011,10,16,22,37,8.10
2011,10,16,22,38,8.00
2011,10,16,22,39,8.00
2011,10,16,22,40,8.00
2011,10,16,22,41,8.00
2011,10,16,22,42,7.90
2011,10,16,22,43,7.90
2011,10,16,22,44,7.90
2011,10,16,22,45,7.90
2011,10,16,22,46,7.80
2011,10,16,22,47,7.80
2011,10,16,22,48,7.70
2011,10,16,22,49,7.70
2011,10,16,22,50,7.70
2011,10,16,22,51,7.60
2011,10,16,22,52,7.60
2011,10,16,22,53,7.60
2011,10,16,22,54,7.60
2011,10,16,22,55,7.70
2011,10,16,22,56,7.70
2011,10,16,22,57,7.70
2011,10,16,22,58,7.70
2011,10,16,22,59,7.70
2011,10,16,23,00,7.70
2011,10,16,23,01,7.70
2011,10,16,23,02,7.70
2011,10,16,23,03,7.70
2011,10,16,23,04,7.70
2011,10,16,23,05,7.60
2011,10,16,23,06,7.60
2011,10,16,23,07,7.60
2011,10,16,23,08,7.50
2011,10,16,23,09,7.50
2011,10,16,23,10,7.40
2011,10,16,23,11,7.40
2011,10,16,23,12,7.40
2011,10,16,23,13,7.40
2011,10,16,23,14,7.40
2011,10,16,23,15,7.40
2011,10,16,23,16,7.40
2011,10,16,23,17,7.40
2011,10,16,23,18,7.40
2011,10,16,23,19,7.30
2011,10,16,23,20,7.20
2011,10,16,23,21,7.20
2011,10,16,23,22,7.10
2011,10,16,23,23,7.10
2011,10,16,23,24,7.10
2011,10,16,23,25,7.00
2011,10,16,23,26,7.00
2011,10,16,23,27,7.00
2011,10,16,23,28,7.00
2011,10,16,23,29,7.00
2011,10,16,23,30,7.10
2011,10,16,23,31,7.00
2011,10,16,23,32,7.00
2011,10,16,23,33,7.00
2011,10,16,23,34,7.00
2011,10,16,23,35,6.90
2011,10,16,23,36,6.90
2011,10,16,23,37,6.90
2011,10,16,23,38,6.80
2011,10,16,23,39,6.80
2011,10,16,23,40,6.80
2011,10,16,23,41,6.80
2011,10,16,23,42,6.80
2011,10,16,23,43,6.80
2011,10,16,23,44,6.80
2011,10,16,23,45,6.70
2011,10,16,23,46,6.70
2011,10,16,23,47,6.70
2011,10,16,23,48,6.70
2011,10,16,23,49,6.60
2011,10,16,23,50,6.60
2011,10,16,23,51,6.60
2011,10,16,23,52,6.60
2011,10,16,23,53,6.60
2011,10,16,23,54,6.60
2011,10,16,23,55,6.60
2011,10,16,23,56,6.60
2011,10,16,23,57,6.50
2011,10,16,23,58,6.50
2011,10,16,23,59,6.50
